Regional Weather Roundup
Issued by NWS Jackson, KY

Home | Current Version | Previous Version | Text Only | Print | Product List | Glossary Off
Versions: 1 2 3 4 5 6 7 8 9 10 11 12 13 14 15 16 17 18 19 20 21 22 23 24 25 26 27 28 29 30 31 32 33 34 35 36 37 38 39 40 41 42 43 44 45 46 47 48 49 50

000
ASUS43 KJKL 021710
RWRJKL

EAST KENTUCKY HOURLY WEATHER ROUNDUP
NATIONAL WEATHER SERVICE JACKSON KY
1200 PM EST MON MAR 02 2015

NOTE: "FAIR" INDICATES FEW OR NO CLOUDS BELOW 12,000 FEET WITH
NO SIGNIFICANT WEATHER AND/OR OBSTRUCTIONS TO VISIBILITY.

* THESE REPORTS ARE NOT UNDER NWS QUALITY CONTROL AND MAY NOT
  REPORT WEATHER SUCH AS PRECIPITATION AND FOG.

KYZ079-080-083-085-087-088-110-112-115-119-120-021800
...EASTERN KENTUCKY...

CITY           SKY/WX    TMP DP  RH WIND       PRES   REMARKS
JACKSON        SUNNY     37  23  56 VRB3      30.45F
LONDON         MOSUNNY   39  25  57 NE7       30.45F WCI  34
SOMERSET*      MOSUNNY   36  27  69 N3        30.49S
MONTICELLO*    SUNNY     40  29  65 CALM      30.49F
HAZARD APT*    SUNNY     41  28  60 E3        30.44
BLACK MTN*       N/A     27  27 100 VRB5        N/A  WCI  21
PIKEVILLE APT* MOSUNNY   36  25  64 W5        30.44F WCI  32
BIG SANDY*     SUNNY     37  24  57 CALM      30.45F
MOREHEAD APT*  SUNNY     32  19  59 SW5       30.52S WCI  27
$$

KYZ035-036-041-042-044-050-067-078-099-021800
...CENTRAL KENTUCKY...

CITY           SKY/WX    TMP DP  RH WIND       PRES   REMARKS
MT STERLING*   SUNNY     32  19  59 NE5       30.51F WCI  27
FLEMING/MASON* SUNNY     30  18  59 CALM      30.53S
DANVILLE*      SUNNY     32  21  64 E6        30.51S WCI  26
RICHMOND*      SUNNY     34  21  60 NE6       30.49S WCI  29
LEXINGTON      SUNNY     32  21  64 E7        30.51S WCI  26
FRANKFORT      SUNNY     33  19  56 VRB6      30.51F WCI  28
$$

KYZ091>093-OHZ055-061-077-WVZ005-015-034-035-042-021800
...SOUTHERN OHIO/WEST VIRGINIA...

CITY           SKY/WX    TMP DP  RH WIND       PRES   REMARKS
COVINGTON      PTSUNNY   29  17  61 CALM      30.52S
COLUMBUS       PTSUNNY   26  14  60 W5        30.51R WCI  20
DAYTON         MOSUNNY   28  14  55 CALM      30.52S
WILMINGTON     MOSUNNY   26  13  57 NE3       30.51S
HUNTINGTON     SUNNY     34  21  59 N8        30.49F WCI  27
CHARLESTON     MOSUNNY   37  21  52 N8        30.46S WCI  31
PINEVILLE*     MOSUNNY   39  29  69 MISG      30.44F
BECKLEY        SUNNY     33  20  58 NW10      30.36S WCI  25
BLUEFIELD      PTSUNNY   35  26  69 W15       30.33F WCI  25
$$

VAZ002-007-008-TNZ017-027-036-066-071-021800
...SOUTHWEST VIRGINIA/EAST TENNESSEE...

CITY           SKY/WX    TMP DP  RH WIND       PRES   REMARKS
WISE*          MOSUNNY   34  27  75 NE8       30.37F WCI  27
JONESVILLE*    CLOUDY    37  30  75 N6        30.44F WCI  33
ABINGDON*      MOSUNNY   39  31  72 N9        30.37S WCI  33
BRISTOL        PTSUNNY   43  35  73 VRB3      30.39S
KNOXVILLE      CLOUDY    41  36  82 N12       30.42F
OAK RIDGE      MOSUNNY   43  34  70 NE10G17   30.44S
CROSSVILLE     CLOUDY    33  30  88 NE9       30.41S WCI  25
NASHVILLE      PTSUNNY   41  30  65 NE9G18    30.48F
$$

...KEY TO REMARKS...
VSB - VISIBILITY IN MILES
WCI - WIND CHILL INDEX
HX  - HEAT INDEX

$$



USA.gov is the U.S. government's official web portal to all federal, state and local government web resources and services.